CZ-3C DEB, 39338

Orbit data source: Space-Track

CZ-3C DEB, 39338 is space debris in HEO originally from a launch on Sun, 31 Oct 2010 UTC launched from the Xichang Space Center, China (XSC). Debris objects in space refer to the collection of defunct objects orbiting the Earth. Examples of debris include non-operational satellites, rocket bodies, and fragments generated from explosions, collisions, or faulty payload assembly.

Loading next visibility...
Identifier
39338, 2010-057C
Orbit
HEO
Country
Flag of CNCN / PRC
Related business
Manufacturer
CALT
Mission
Spacecraft
Bus & Motor
Unknown
Mass
Unknown
Launch date (UTC)
2010-10-31 (15 years ago)
Launch vehicle
Unknown
Launch site
Xichang Space Center, China (XSC)
Object type
Payload
Rocket body
Debris
Shape & HBR
Unknown shape, 0.4 m
Radar Cross Section
Medium (>0.1 m² and <1 m²)

Expand to show TLE details & history
Last TLE update: 18 hours ago

TLE from 18 hours ago
0 CZ-3C DEB
1 39338U 10057C   25346.71309068  .00000344  00000-0  33621-2 0  9991
2 39338  20.0654  74.3099 7196145 218.2800  57.8013  2.25880766100189
Epoch: 2025-12-12T17:06Z
TLE epoch observation values (Epoch: 2025-12-12T17:06:51.034Z)
Latitude
0.00002°
Longitude
95.93577°
Altitude
20,835.274 km
Speed
3.612 km/s
True Right ascension
04h 57m 11s
True Declination
0° 00' 00"
Sunlit
Object was in daylight at epoch
Visualization orbit readout
Latitude
Unknown
Longitude
Unknown
Altitude
Unknown
Speed
Unknown
Apparent Right ascension
Unknown
Apparent Declination
Unknown
Sunlit
N/A
Visualization observer readout
Local Sidereal Time
09:16:56
Azimuth
Unknown
Elevation
Unknown
Doppler factor
Unknown
Orbital elements
Apogee altitude
35,823.1 km
Perigee altitude
502.832 km
Semi-major axis
24,541.103 km
Eccentricity
0.71961
Inclination
20.0654°
RAAN
74.3099°
Arg. of periapsis
218.28°
True anomaly
141.67599°
Mean anomaly
57.8013°
Eccentric anomaly
98.57164°
Mean motion
0.56455 °/min
Orbital period
637.68 mins
BSTAR
0.0033621
Loading maneuver chart data...
Computing Atmospheric mass density...
Loading historical data...
Loading historical data...
Loading historical data...
Loading historical data...
Loading historical data...
Loading historical data...
Loading historical data...

Documentation

Showing up to 5 results
|